Chicopee, MA

11:14 PM EDT on May 24, 2018 (GMT -0400)
Westover Air Reserve Base / Metropolitan Airport

Weather History for KCEF - September, 2014

Change the Weather History Date:

Monday, September 15, 2014

  Actual Average Record
Temperature  
Mean Temperature 52 °F -  
Max Temperature 66 °F 72 °F 84 °F (1998)
Min Temperature 40 °F 51 °F 37 °F (2001)
Degree Days  
Heating Degree Days 12    
Growing Degree Days 2 (Base 50)    
Moisture  
Dew Point 44 °F    
Average Humidity 76    
Maximum Humidity 97    
Minimum Humidity 42    
Precipitation  
Precipitation 0.00 in - - ()
Sea Level Pressure  
Sea Level Pressure 30.20 in    
Wind  
Wind Speed 3 mph (NE)    
Max Wind Speed 6 mph    
Max Gust Speed -    
Visibility 10 miles    
Events      
Averages and records for this station are not official NWS values.
T = Trace of Precipitation, MM = Missing Value Source: NWS Daily Summary

Daily Weather History Graph

Daily Weather History Graph

Search for Another Location

Airport or City:

Astronomy

Sep. 15, 2014 Rise Set
Actual Time 6:30 AM EDT 6:59 PM EDT
Civil Twilight 6:01 AM EDT 7:27 PM EDT
Nautical Twilight 5:28 AM EDT 8:00 PM EDT
Astronomical Twilight 4:54 AM EDT 8:35 PM EDT
Moon 11:33 PM EDT (9/15) 1:34 PM EDT (9/15)
Length of Visible Light 13h 25m
Length of Day
12h 29m
Waning Gibbous, 54% of the Moon is Illuminated
Sep 15
Waning Gibbous
Sep 15
Last Quarter
Sep 24
New
Oct 1
First Quarter
Oct 8
Full

Hourly Weather History & Observations

Time (EDT) Temp. Windchill Dew Point Humidity Pressure Visibility Wind Dir Wind Speed Gust Speed Precip Events Conditions
12:58 AM 43.3 °F 40.7 °F 42.6 °F 97% 30.24 in 10.0 mi NE 4.6 mph - N/A   Clear
1:58 AM 43.3 °F 40.7 °F 42.3 °F 96% 30.25 in 10.0 mi ENE 4.6 mph - N/A   Clear
2:58 AM 42.3 °F - 41.4 °F 97% 30.24 in 10.0 mi East 2.3 mph - N/A   Clear
3:58 AM 41.0 °F - 39.9 °F 96% 30.24 in 10.0 mi Calm Calm - N/A   Clear
4:58 AM 40.8 °F - 39.9 °F 97% 30.25 in 10.0 mi NNE 2.3 mph - N/A   Overcast
5:58 AM 43.3 °F - 42.6 °F 97% 30.27 in 10.0 mi Calm Calm - N/A   Overcast
6:58 AM 44.2 °F - 43.2 °F 96% 30.27 in 10.0 mi NE 1.2 mph - N/A   Overcast
7:58 AM 45.7 °F - 44.1 °F 94% 30.27 in 10.0 mi NNE 2.3 mph - N/A   Partly Cloudy
8:58 AM 49.1 °F - 44.8 °F 85% 30.26 in 10.0 mi Variable 1.2 mph - N/A   Clear
9:58 AM 53.6 °F - 45.9 °F 75% 30.25 in 10.0 mi Variable 1.2 mph - N/A   Clear
10:58 AM 58.5 °F - 45.5 °F 62% 30.24 in 10.0 mi Variable 2.3 mph - N/A   Clear
11:58 AM 61.2 °F - 38.8 °F 44% 30.22 in 10.0 mi Variable 1.2 mph - N/A   Clear
12:58 PM 61.2 °F - 38.1 °F 42% 30.21 in 10.0 mi Variable 2.3 mph - N/A   Clear
1:58 PM 63.3 °F - 41.4 °F 45% 30.19 in 10.0 mi Variable 2.3 mph - N/A   Clear
2:58 PM 64.6 °F - 42.3 °F 44% 30.16 in 10.0 mi WSW 5.8 mph - N/A   Clear
3:58 PM 65.3 °F - 41.4 °F 42% 30.16 in 10.0 mi Variable 1.2 mph - N/A   Clear
4:58 PM 65.7 °F - 41.9 °F 42% 30.14 in 10.0 mi Variable 1.2 mph - N/A   Clear
5:58 PM 64.6 °F - 43.9 °F 47% 30.13 in 10.0 mi ESE 4.6 mph - N/A   Clear
6:58 PM 59.4 °F - 45.7 °F 61% 30.13 in 10.0 mi ESE 3.5 mph - N/A   Mostly Cloudy
7:58 PM 51.8 °F - 48.4 °F 88% 30.14 in 10.0 mi NNE 2.3 mph - N/A   Overcast
8:58 PM 52.0 °F - 48.4 °F 88% 30.13 in 10.0 mi North 1.2 mph - N/A   Overcast
9:58 PM 51.4 °F - 48.7 °F 90% 30.12 in 10.0 mi North 2.3 mph - N/A   Overcast
10:58 PM 49.3 °F - 47.7 °F 94% 30.12 in 10.0 mi NE 1.2 mph - N/A   Scattered Clouds
11:58 PM 49.3 °F - 47.7 °F 94% 30.12 in 10.0 mi NNE 1.2 mph - N/A   Scattered Clouds